Regional Weather Roundup
Issued by NWS

Home | Current Version | Previous Version | Text Only | Print | Product List | Glossary Off
Versions: 1 2 3 4 5 6 7 8 9 10 11 12 13 14 15 16 17 18 19 20 21 22 23 24 25 26 27 28 29 30 31 32 33 34 35 36 37 38 39 40 41 42 43 44 45 46 47 48 49 50

000
ASUS45 KBOU 280107
RWRCO

WEATHER ROUNDUP FOR COLORADO
NATIONAL WEATHER SERVICE DENVER/BOULDER CO
700 PM MDT FRI MAR 27 2015

NOTE: "FAIR" INDICATES FEW OR NO CLOUDS BELOW 12000 FEET WITH NO
SIGNIFICANT WEATHER AND/OR OBSTRUCTIONS TO VISIBILITY.

COZ001>005-013-030-031-280200-
...NORTHWEST COLORADO...

CITY           SKY/WX    TMP DP  RH WIND       PRES   REMARKS
CRAIG          MOCLDY    62  29  28 SW9       30.17S
HAYDEN         CLEAR     57  27  30 W3        30.19S
MEEKER         CLEAR     64  26  23 SW8       30.20S
MOUNT WERNER   NOT AVBL
STEAMBOAT SPGS PTCLDY    56  30  37 E8        30.20F
WALDEN         PTCLDY    50  25  37 W10       30.25S
$$

COZ006>008-011-280200-
...WEST CENTRAL VALLEYS...

CITY           SKY/WX    TMP DP  RH WIND       PRES   REMARKS
GRAND JUNCTION CLEAR     68  25  19 NE5       30.13S
MONTROSE       CLEAR     67  21  17 W10       30.20R
EAGLE          PTCLDY    64  19  17 N6        30.23R
RIFLE          CLEAR     63  26  24 W10       30.16R
DELTA          CLEAR     71  20  14 W10       30.15S
NUCLA          CLEAR     68  19  15 NW7       30.22S
$$

COZ017>023-064>068-280200-
...SOUTHWEST COLORADO...

CITY           SKY/WX    TMP DP  RH WIND       PRES   REMARKS
DURANGO        CLEAR     64  22  20 NW21G30   30.17R
CORTEZ         CLEAR     67  22  18 W10       30.20R
PAGOSA SPRINGS MOCLDY    64  18  17 W13       30.23R
TELLURIDE      CLEAR     53  22  29 CALM      30.35S
WOLF CREEK PAS PTCLDY    39  12  33 NW3       30.49R
$$

COZ009-010-012-014-032>034-037-058>063-280200-
...CENTRAL COLORADO...

CITY           SKY/WX    TMP DP  RH WIND       PRES   REMARKS
ASPEN          PTCLDY    55  21  26 VRB7      30.26R
BUENA VISTA    PTCLDY    56  17  21 W9        30.25R
COPPER MTN     PTCLDY    37  18  44 W23G38    30.44S
BERTHOUD PASS  FAIR      28  21  74 NW33      30.43R WCI  12
COTTONWOOD PAS PTCLDY    50  10  20 W14G26    30.35R
GUNNISON       CLEAR     57  19  23 NW8       30.29R
KREMMLING      CLEAR     55  23  28 W7        30.26S
LEADVILLE      PTCLDY    40  22  48 MISG      30.34R
SALIDA         PTCLDY    61  11  13 NW12      30.30R
SUNLIGHT       PTCLDY    45  19  36 W5        30.45S
WILKERSON PASS PTCLDY    37  19  48 N7G18     30.43R
$$

COZ069>075-280200-
...SAN LUIS VALLEY/SANGRE DE CRISTO MOUNTAINS...

CITY           SKY/WX    TMP DP  RH WIND       PRES   REMARKS
ALAMOSA        PTCLDY    62  12  14 N20G28    30.19R
LA VETA PASS   MOCLDY    46  16  29 CALM      30.34R
SAGUACHE       PTCLDY    59  19  21 NW21G26   30.24R
$$

COZ035-036-038>040-280200-
...NORTHERN COLORADO FRONT RANGE...

CITY           SKY/WX    TMP DP  RH WIND       PRES   REMARKS
DENVER INTL AP MOCLDY    64  31  28 CALM      30.09S
DMNS CITY PARK   N/A     66  25  21 W13G28    30.10S
AURORA         PTCLDY    65  31  27 N5        30.11S
FRONT RANGE AP NOT AVBL
ERIE MUNI ARPT PTCLDY    67  28  23 W3        30.08R
BOULDER MUN AP PTCLDY    64  28  25 W14       30.10R
CENTENNIAL     PTCLDY    64  25  22 NW17G24   30.12R
BROOMFIELD     PTCLDY    66  27  22 W17       30.11R
FORT COLLINS   PTCLDY    66  30  26 W7        30.08S
LONGMONT       PTCLDY    65  29  26 W8        30.10R
$$

COZ041-046-047-076>085-087-088-280200-
...PIKES PEAK/PALMER DIVIDE AND SOUTHERN FOOTHILLS...

CITY           SKY/WX    TMP DP  RH WIND       PRES   REMARKS
COLO. SPRINGS  PTCLDY    59  28  30 S8        30.15R
A. F. ACADEMY  PTCLDY    58  25  28 N5        30.16R
ELLICOTT       CLOUDY   N/A N/A N/A S3        30.14R
FALCON         PTCLDY    57  26  29 N7        30.18S
FORT CARSON    PTCLDY    60  34  37 W2        30.12R
LIMON          PTCLDY    58  30  34 NW9       30.10R
MONUMENT HILL  PTCLDY    54  30  40 N9        30.18R
TRINIDAD       CLOUDY    64  29  26 E14       30.09R
$$

COZ042>045-048>051-090-091-280200-
...NORTHEAST COLORADO...

CITY           SKY/WX    TMP DP  RH WIND       PRES   REMARKS
GREELEY ARPT   MOCLDY    66  27  22 N8        30.04R
AKRON          PTCLDY    61  33  35 N9        30.03S
BURLINGTON     MOCLDY    62  35  36 CALM      30.03R
WRAY           PTCLDY    67  30  25 NW12      29.99S
STERLING       PTCLDY    61  32  33 N6        30.00S
HOLYOKE        PTCLDY    64  30  27 N9        29.98S
FORT MORGAN    PTCLDY   N/A N/A N/A N9        30.04R
$$

COZ086-089-092>099-280200-
...SOUTHEAST COLORADO...

CITY           SKY/WX    TMP DP  RH WIND       PRES   REMARKS
PUEBLO         MOCLDY    66  30  26 S8        30.07R
LA JUNTA       CLEAR     65  30  27 SE8       30.06R
LAMAR          CLEAR     65  32  29 SW7       30.01F
SPRINGFIELD      N/A     59  32  36 E7        30.08R
$$



USA.gov is the U.S. government's official web portal to all federal, state and local government web resources and services.